Regional Weather Roundup
Issued by NWS Charleston, SC

Home | Current Version | Previous Version | Text Only | Print | Product List | Glossary On
Versions: 1 2 3 4 5 6 7 8 9 10 11 12 13 14 15 16 17 18 19 20 21 22 23 24 25 26 27 28 29 30 31 32 33 34 35 36 37 38 39 40 41 42 43 44 45 46 47 48 49 50
000
ASUS42 KCHS 280827
RWRCHS

REGIONAL WEATHER ROUNDUP
NATIONAL WEATHER SERVICE CHARLESTON SC
400 AM EDT FRI AUG 28 2015

NOTE: "FAIR" INDICATES FEW OR NO CLOUDS BELOW 12,000 FEET WITH NO
SIGNIFICANT WEATHER AND/OR OBSTRUCTIONS TO VISIBILITY.

NOT ALL STATIONS ARE QUALITY CONTROLLED BY THE NATIONAL
WEATHER SERVICE. USE DATA WITH CAUTION...ESPECIALLY
DEWPOINT OBSERVATIONS.

SCZ027-030-031-034>040-042>050-280900-
...SOUTHEAST SOUTH CAROLINA...

CITY           SKY/WX    TMP DP  RH WIND       PRES   REMARKS
N CHARLESTON   MOCLDY    73  70  90 N9        30.03F
WATERFRONT PRK   N/A     75  74  97 N8        30.00F
MOUNT PLEASANT CLOUDY    72  72 100 N5        30.03S FOG
JOHNS ISLAND   CLOUDY    75  73  94 N7        30.02F FOG
PINOPOLIS        N/A     75  72  88 NE10      29.97F
MONCKS CORNER  PTSUNNY   72  68  88 CALM      30.04S
SUMMERVILLE    PTSUNNY   72  72 100 CALM      30.05S
BEAUFORT MCAS  PTCLDY    73  71  93 N7        30.03S
BEAUFORT ARPT  FAIR      73  73 100 N7        30.02S
HILTON HEAD IS CLEAR     75  73  94 N3        30.02S
WALTERBORO     MOSUNNY   72  70  94 CALM      30.05S
ALLENDALE      FAIR      72  70  94 CALM      30.03F

...SOUTHERN MIDLANDS AND PEE DEE...

CITY           SKY/WX    TMP DP  RH WIND       PRES   REMARKS
GEORGETOWN     NOT AVBL
KINGSTREE      NOT AVBL
ORANGEBURG     PTCLDY    70  67  90 NE5       30.06F
BARNWELL       PTSUNNY   72  72 100 E3        30.06F
AIKEN          FAIR      68  64  88 NE6       30.10S
MANNING        FAIR      68  64  88 N3        30.05F
COLUMBIA       CLEAR     73  65  75 E5        30.07F
SUMTER         CLEAR     67  64  90 NE7       30.05F
FLORENCE       PTCLDY    68  64  87 N7        30.07F
MYRTLE BEACH   MOCLDY    70  63  78 N8        30.06F
N MYRTLE BEACH PTCLDY    70  66  87 N9        30.05S

$$

GAZ063-065-086>088-099>101-113>116-118-119-134>141-150-280900-
...SOUTHEAST GEORGIA...

CITY           SKY/WX    TMP DP  RH WIND       PRES   REMARKS
SAVANNAH ARPT  CLEAR     74  71  91 N7        30.02F
HUNTER AAF     CLEAR     75  75 100 VRB2      29.99F
FORT STEWART   CLEAR     74  72  93 N3        29.99F
STATESBORO     CLEAR     72  32  23 E5        30.03F
SYLVANIA       PTSUNNY   73  73 100 E7        30.04F FOG
CLAXTON        NOT AVBL

...CSRA...CENTRAL AND FAR SOUTHEAST GEORGIA...

CITY           SKY/WX    TMP DP  RH WIND       PRES   REMARKS
THOMSON        CLEAR     73  72  99 CALM      30.10F
AUGUSTA-BUSH   CLEAR     70  68  93 CALM      30.05S
AUGUSTA-DANIEL CLEAR     73  69  87 E6        30.07S
SWAINSBORO     FAIR     N/A N/A N/A E8        30.04S
VIDALIA        CLEAR     73  72  94 E7        30.02F
EASTMAN        FAIR      74  74 100 E5        30.03F
HAZLEHURST     FAIR      75  75 100 E5        29.99F
ALMA           CLEAR     73  72  96 NE7       30.00F
WAYCROSS       MOCLDY    76  76 100 CALM      29.99F
JESUP          PTSUNNY   77  75  94 NE3       30.00S
BAXLEY         FAIR      73  73 100 E7        30.00F
BRUNSWICK      PTCLDY    73  72  94 NE3       30.00S
SAINT SIMONS   PTCLDY    80  72  76 SE5       29.98F

$$

SCZ027-028-034-036>038-045-046-048>050-GAZ119-141-280900-
...LAKE AND SUPPLEMENTAL COASTAL OBSERVATIONS...

STATION/POSITION TIME  TEMP    WIND        PRES    WAVE   SWELL
                       AIR SEA DIR/SP/G            HT/PER HT/PER/DIR
                 (UTC) (F)     (DEG/KT/KT) (MB)    (FT/S) (FT/S/D)
UPR LAKE MARION  NOT AVBL
WINYAH BAY       0745   71     350/  4     1016.0S
LAKE MURRAY      0700   73      60/  2/  7 1018.3S
ACE BASIN NERRS  NOT AVBL
FORT PULASKI     0800   78 85   20/  8/  9 1016.6F
SAPELO ISLAND    0800   80      70/  5     1015.0F

$$

ANZ835-935-AMZ111-154-330-350-352-354-370-450-454-472-280900-
...C-MAN AND BUOY OBSERVATIONS...

STATION/POSITION TIME  TEMP    WIND        PRES    WAVE   SWELL
                       AIR SEA DIR/SP/G            HT/PER HT/PER/DIR
                 (UTC) (F)     (DEG/KT/KT) (MB)    (FT/S) (FT/S/D)
BUOY 41004       0750   81 84   20/  4/  6 1015.8F   3/ 9   3/ 9
BUOY 41008       0750   82 85  110/ 10/ 12 1016.1F   3/ 9   2/130/ 9
FOLLY BEACH CMAN 0800   75     360/  7/  9 1016.6F
CAPERS NEARSHORE 0708   77      10/ 12/ 16 1016.8F
FRIPP NEARSHORE  0700   80      40/ 14/ 14 1016.2F


STATION/POSITION TIME  TEMP    WIND        PRES    WAVE   SWELL
                       AIR SEA DIR/SP/G            HT/PER HT/PER/DIR
                 (UTC) (F)     (DEG/KT/KT) (MB)    (FT/S) (FT/S/D)
5E ST. MARYS GA  0721      85                N/A     3/ 9
FRYING PAN BUOY  0750   80 81  360/ 10/ 12 1016.8F
BUOY 41025       0750   78 82   40/ 16/ 19 1017.1F   4/ 8   3/100/ 8
CAPE LOOKOUT NC  0800   76      10/ 10/ 13 1017.2F
BUOY 41002       0750   79 84  120/  4/  6 1015.8S   3/ 8   3/130/ 8
BUOY 41010       0720   82 85  190/  6/  8 1015.8F
ST AUGUSTINE FL  0800   77 85   CALM  /  1 1016.0S


$$



USA.gov is the U.S. government's official web portal to all federal, state and local government web resources and services.